Weather History for St. Joseph, MO

Change the Weather History Date:

Monday, September 3, 2012

  Actual Average Record
Temperature  
Mean Temperature 79 °F 71 °F  
Max Temperature 94 °F 83 °F 107 °F (1947)
Min Temperature 64 °F 59 °F 36 °F (1974)
Degree Days  
Heating Degree Days 0 1  
Month to date heating degree days 0 1  
Since 1 July heating degree days 4 6  
Cooling Degree Days 14 7  
Month to date cooling degree days 34 21  
Year to date cooling degree days 1466 1098  
Growing Degree Days 28 (Base 50)    
Moisture  
Dew Point 67 °F    
Average Humidity 71    
Maximum Humidity 100    
Minimum Humidity 41    
Precipitation  
Precipitation 0.82 in 0.14 in 2.27 in (1961)
Month to date precipitation 1.30 0.46  
Year to date precipitation 18.49 26.76  
Sea Level Pressure  
Sea Level Pressure 29.88 in    
Wind  
Wind Speed 6 mph (SE)    
Max Wind Speed 21 mph    
Max Gust Speed 26 mph    
Visibility 7 miles    
Events Fog , Rain , Thunderstorm    
T = Trace of Precipitation, MM = Missing Value Source: NWS Daily Summary

Daily Weather History Graph

Daily Weather History Graph

Search for Another Location

Airport:

Trip Planner

Search our weather history database for the weather conditions in past years. The results will help you decide how hot, cold, wet, or windy it might be!

Date:

Astronomy

Sep. 03, 2012 Rise Set
Actual Time 6:50 AM CDT 7:46 PM CDT
Civil Twilight 6:22 AM CDT 8:14 PM CDT
Nautical Twilight 5:49 AM CDT 8:47 PM CDT
Astronomical Twilight 5:15 AM CDT 9:20 PM CDT
Moon 9:07 PM CDT (9/3) 9:58 AM CDT (9/3)
Length of Visible Light 13h 51m
Length of Day
12h 56m
Waning Gibbous, 90% of the Moon is Illuminated
Sep 3
Waning Gibbous
Sep 8
Last Quarter
Sep 15
New
Sep 22
First Quarter
Sep 29
Full

Hourly Weather History & Observations

Time (CDT) Temp. Heat Index Dew Point Humidity Pressure Visibility Wind Dir Wind Speed Gust Speed Precip Events Conditions
12:53 AM 66.9 °F - 64.9 °F 93% 29.88 in 10.0 mi Calm Calm - N/A   Clear
1:53 AM 66.9 °F - 64.0 °F 90% 29.88 in 10.0 mi Calm Calm - N/A   Clear
2:53 AM 66.0 °F - 64.9 °F 96% 29.88 in 10.0 mi Calm Calm - N/A   Clear
3:26 AM 66.2 °F - 64.4 °F 94% 29.91 in 1.5 mi Calm Calm - N/A   Clear
3:36 AM 64.4 °F - 64.4 °F 100% 29.91 in 4.0 mi Calm Calm - N/A   Clear
3:53 AM 66.0 °F - 64.9 °F 96% 29.89 in 8.0 mi Calm Calm - N/A   Clear
4:53 AM 64.0 °F - 62.1 °F 93% 29.89 in 5.0 mi Calm Calm - N/A   Clear
4:57 AM 64.4 °F - 62.6 °F 94% 29.91 in 1.5 mi Calm Calm - N/A   Clear
5:03 AM 64.4 °F - 62.6 °F 94% 29.91 in 0.5 mi Calm Calm - N/A Fog Fog
5:08 AM 64.4 °F - 62.6 °F 94% 29.91 in 1.2 mi Calm Calm - N/A   Clear
5:11 AM 64.4 °F - 62.6 °F 94% 29.91 in 4.0 mi Calm Calm - N/A   Clear
5:53 AM 64.0 °F - 63.0 °F 96% 29.88 in 6.0 mi Calm Calm - N/A   Clear
6:53 AM 64.9 °F - 64.0 °F 97% 29.89 in 3.0 mi West 3.5 mph - N/A   Partly Cloudy
6:56 AM 64.4 °F - 64.4 °F 100% 29.92 in 1.8 mi Calm Calm - N/A   Partly Cloudy
7:10 AM 66.2 °F - 64.4 °F 94% 29.92 in 3.0 mi SSE 3.5 mph - N/A   Partly Cloudy
7:53 AM 71.1 °F - 69.1 °F 93% 29.90 in 7.0 mi ESE 3.5 mph - N/A   Clear
8:53 AM 75.0 °F - 70.0 °F 84% 29.90 in 10.0 mi SSE 3.5 mph - N/A   Clear
9:53 AM 81.0 °F 84.9 °F 71.1 °F 72% 29.90 in 10.0 mi SSE 6.9 mph - N/A   Clear
10:53 AM 84.0 °F 88.4 °F 70.0 °F 63% 29.90 in 10.0 mi SSE 6.9 mph 16.1 mph N/A   Clear
11:53 AM 87.1 °F 92.8 °F 71.1 °F 59% 29.89 in 10.0 mi ESE 8.1 mph - N/A   Clear
12:53 PM 90.0 °F 95.4 °F 70.0 °F 52% 29.88 in 10.0 mi Variable 6.9 mph - N/A   Clear
1:53 PM 91.9 °F 96.9 °F 69.1 °F 47% 29.87 in 10.0 mi East 5.8 mph - N/A   Clear
2:53 PM 93.9 °F 98.6 °F 68.0 °F 43% 29.85 in 10.0 mi Variable 4.6 mph - N/A   Clear
3:53 PM 93.0 °F 97.9 °F 69.1 °F 45% 29.83 in 10.0 mi SE 9.2 mph - N/A   Clear
4:53 PM 93.0 °F 96.4 °F 66.9 °F 42% 29.82 in 10.0 mi ESE 9.2 mph - N/A   Clear
5:53 PM 91.9 °F 95.9 °F 68.0 °F 45% 29.82 in 10.0 mi SE 9.2 mph - N/A   Clear
6:53 PM 89.1 °F 92.9 °F 68.0 °F 50% 29.83 in 10.0 mi ESE 4.6 mph - N/A   Clear
7:53 PM 86.0 °F 89.4 °F 68.0 °F 55% 29.83 in 10.0 mi East 4.6 mph - N/A   Clear
8:53 PM 84.0 °F 87.8 °F 69.1 °F 61% 29.82 in 10.0 mi ENE 8.1 mph - N/A   Clear
9:14 PM 84.2 °F 88.4 °F 69.8 °F 62% 29.87 in 10.0 mi NE 10.4 mph - N/A Thunderstorm Scattered Clouds
9:35 PM 78.8 °F - 71.6 °F 78% 29.92 in 2.5 mi North 8.1 mph 19.6 mph 0.17 in Rain , Thunderstorm Heavy Thunderstorms and Rain
9:41 PM 77.0 °F - 71.6 °F 83% 29.92 in 1.5 mi ENE 9.2 mph 16.1 mph 0.36 in Rain , Thunderstorm Heavy Thunderstorms and Rain
9:49 PM 77.0 °F - 71.6 °F 83% 29.92 in 2.0 mi South 17.3 mph 20.7 mph 0.49 in Rain , Thunderstorm Heavy Thunderstorms and Rain
9:53 PM 75.9 °F - 70.0 °F 82% 29.89 in 2.5 mi South 19.6 mph 26.5 mph 0.54 in Rain , Thunderstorm Heavy Thunderstorms and Rain
10:00 PM 75.2 °F - 71.6 °F 89% 29.92 in 3.0 mi SSE 12.7 mph 26.5 mph 0.07 in Rain , Thunderstorm Heavy Thunderstorms and Rain
10:53 PM 71.1 °F - 68.0 °F 90% 29.88 in 10.0 mi SSE 9.2 mph - 0.28 in Rain , Thunderstorm Light Thunderstorms and Rain
11:22 PM 71.6 °F - 68.0 °F 88% 29.90 in 10.0 mi SSW 5.8 mph - 0.00 in   Clear
11:53 PM 70.0 °F - 66.9 °F 90% 29.88 in 10.0 mi South 5.8 mph - 0.00 in   Clear